This demonstration page uses our WeatherBlox Daily Observations layout. Learn more.

Left ArrowRight Arrow

Hourly Observations for April 24, 2016

Temp ( °F °C ) Dew Point ( °F °C ) Humidity (%) Winds ( mph kmh ) Pressure ( in mb ) Visibility ( mi km ) Precip ( " mm )
12:51 am 00:51 Clear 64 17.8 31 -0.6 29 29 NW 13 20 29.75 1007 10 16 0.00 0.00
1:51 am 01:51 Clear 64 17.8 28 -2.2 26 26 NW 14 22 29.73 1007 10 16 0.00 0.00
2:51 am 02:51 Clear 62 16.7 28 -2.2 28 28 NW 13 20 29.74 1007 10 16 0.00 0.00
3:51 am 03:51 Clear 61 16.1 25 -3.9 25 25 NNW 10 17 29.75 1007 10 16 0.00 0.00
4:51 am 04:51 Clear 60 15.6 24 -4.4 25 25 NNW 9 15 29.76 1008 10 16 0.00 0.00
5:51 am 05:51 Sunny 57 13.9 23 -5 27 27 NNW 8 13 29.79 1009 10 16 0.00 0.00
6:51 am 06:51 Sunny 60 15.6 24 -4.4 25 25 S 6 9 29.81 1010 10 16 0.00 0.00
7:51 am 07:51 Sunny 63 17.2 25 -3.9 24 24 S 3 6 29.83 1010 10 16 0.00 0.00
8:51 am 08:51 Sunny 67 19.4 23 -5 19 19 VRB 3 6 29.82 1010 10 16 0.00 0.00
9:51 am 09:51 Sunny 71 21.7 18 -7.8 13 13 VRB 3 6 29.81 1010 10 16 0.00 0.00
10:51 am 10:51 Sunny 74 23.3 21 -6.1 14 14 undefined N/A 29.81 1010 10 16 0.00 0.00
11:51 am 11:51 Sunny 76 24.4 19 -7.2 12 12 VRB 6 9 29.79 1009 10 16 0.00 0.00
12:51 pm 12:51 Sunny 80 26.7 18 -7.8 10 10 Calm 29.75 1008 10 16 0.00 0.00
1:51 pm 13:51 Sunny 83 28.3 17 -8.3 8 8 VRB 6 9 29.72 1006 10 16 0.00 0.00
2:51 pm 14:51 Sunny 84 28.9 15 -9.4 7 7 NW 18 30 29.68 1005 10 16 0.00 0.00
3:51 pm 15:51 Sunny 85 29.4 16 -8.9 7 7 NW 17 28 29.66 1004 10 16 0.00 0.00
4:51 pm 16:51 Sunny 84 28.9 15 -9.4 7 7 WNW 20 31 29.66 1004 10 16 0.00 0.00
5:51 pm 17:51 Sunny 81 27.2 15 -9.4 8 8 NW 20 31 29.67 1005 10 16 0.00 0.00
6:51 pm 18:51 Sunny 78 25.6 14 -10 9 9 NW 17 28 29.66 1005 10 16 0.00 0.00
7:51 pm 19:51 Clear 74 23.3 13 -10.6 9 9 NW 13 20 29.68 1005 10 16 0.00 0.00
8:51 pm 20:51 Clear 73 22.8 14 -10 10 10 NNW 14 22 29.69 1006 10 16 0.00 0.00
9:51 pm 21:51 Clear 70 21.1 14 -10 11 11 NW 10 17 29.70 1006 10 16 0.00 0.00
10:51 pm 22:51 Clear 66 18.9 14 -10 13 13 Calm 29.71 1006 10 16 0.00 0.00
11:51 pm 23:51 Clear 67 19.4 18 -7.8 15 15 VRB 6 9 29.70 1006 10 16 0.00 0.00

Powered by AerisWeather